Location: Hurecourt
(47.9030°N, 6.0653°E)
Time: 10:12:17
(UTC+00:00)

N. Korean satellite - Visible Passes

Search period start: 30 September 2020 00:00
Search period end: 10 October 2020 00:00
Orbit: 455 x 503 km, 97.2° (Epoch: 29 September)

Date Brightness Start Highest point End Pass type
(mag) Time Alt. Az. Time Alt. Az. Time Alt. Az.
30 Sep 8.6 04:43:17 10° NNE 04:46:36 33° E 04:49:50 10° SSE visible
01 Oct 9.8 04:17:55 10° NE 04:20:22 17° E 04:22:46 10° SE visible
03 Oct 7.6 04:58:19 10° NNE 05:01:51 50° E 05:05:16 10° S visible
04 Oct 9.2 04:32:39 10° NE 04:35:39 25° E 04:38:36 10° SSE visible
05 Oct 10.0 04:07:39 10° ENE 04:09:22 13° E 04:11:03 10° ESE visible
07 Oct 8.3 04:47:32 10° NNE 04:50:52 36° E 04:54:08 10° SSE visible
08 Oct 9.6 04:22:03 10° NE 04:24:38 19° E 04:27:10 10° SE visible
